User: anonymous   Login
Location: R�o Medio
(42.4667°N, 3.0167°W)
Time: 07:32:50
(UTC+00:00)
Language:

Cosmos 1428 Rocket - Orbit

View from above orbital plane
View from above orbital plane
View from above satellite
View from above satellite

Ground track
Ground track

The orbit data is extracted from the following two-line orbital elements,

1 13758U 83001B   20157.15944826  .00000073  00000-0  57020-4 0  9998
2 13758  82.9123 216.5075 0027523 177.4338 182.6967 13.78785348881021
Epoch (UTC): 05 June 2020 03:49:36
Eccentricity: 0.0027523
inclination: 82.9123°
perigee height: 948 km
apogee height: 988 km
right ascension of ascending node: 216.5075°
argument of perigee: 177.4338°
revolutions per day: 13.78785348
mean anomaly at epoch: 182.6967°
orbit number at epoch: 88102

The dashed part of the orbit path shows where the satellite is in the earth's shadow,  

DLR